Hourly Data Report for September 12, 2017

All times are specified in Local Standard Time (LST). Add 1 hour to adjust for Daylight Saving Time where and when it is observed.

IQALUIT CLIMATE
NUNAVUT

63°44'50.000" N
68°32'40.000" W
33.50 m
2402592
71321
XFB

Download Data

Hourly Data (September 2017)
Hourly Data Report for September 12, 2017
Temp Definition
°C
Dew Point Temp Definition
°C
Rel Hum Definition
%
Wind Dir Definition
10's deg

Wind Spd Definition
km/h
Visibility Definition
km
Stn Press Definition
kPa
Hmdx Definition


Wind Chill Definition


Weather Definition


TIME
00:00 3.2 -4.6 57 13 12   100.21     LegendNANA
01:00 1.6 -1.7 79 13 8   100.11     LegendNANA
02:00 3.1 -4.0 60 13 44   99.99     LegendNANA
03:00 1.5 -1.5 80 13 24   99.85     LegendNANA
04:00 2.0 -1.2 80 13 29   99.70     LegendNANA
05:00 1.0 -0.2 92 15 18   99.56     LegendNANA
06:00 2.0 -0.9 81 13 31   99.46     LegendNANA
07:00 2.3 -0.5 82 13 33   99.31     LegendNANA
08:00 2.4 -0.3 82 14 27   99.26     LegendNANA
09:00 2.2 0.6 89 14 35   99.21     LegendNANA
10:00 2.2 1.0 92 15 35   99.16     LegendNANA
11:00 2.2 1.5 95 15 34   99.12     LegendNANA
12:00 3.0 1.9 93 14 32   99.09     LegendNANA
13:00 2.2 1.4 94 15 25   99.08     LegendNANA
14:00 2.2 1.6 96 15 18   99.08     LegendNANA
15:00 2.3 1.7 96 16 21   99.08     LegendNANA
16:00 2.2 1.6 96 15 21   99.10     LegendNANA
17:00 2.5 2.0 97 14 22   99.12     LegendNANA
18:00 2.6 2.1 97 12 16   99.11     LegendNANA
19:00 2.6 2.1 96 12 10   99.14     LegendNANA
20:00 2.8 2.3 96 12 9   99.16     LegendNANA
21:00 3.2 2.5 95 9 7   99.14     LegendNANA
22:00 3.2 2.4 95 11 6   99.15     LegendNANA
23:00 3.6 2.5 92 12 9   99.15     LegendNANA

Notes on Data Quality.

Legend

  • E = Estimated
  • M = Missing
  • NA = Not Available
  • ‡ = Partner data that is not subject to review by the National Climate Archives
Date modified: